Time,TemperatureF,DewpointF,PressureIn,WindDirection,WindDirectionDegrees,WindSpeedMPH,WindSpeedGustMPH,Humidity,HourlyPrecipIn,Conditions,Clouds,dailyrainin,SoftwareType,DateUTC
2013-04-27 00:04:00,57.4,50.6,30.23,SSW,202,0.0,-999.0,78,-99.99,,,0.00,Acu-Link.com,2013-04-27 04:04:00,
2013-04-27 00:19:00,57.4,49.9,30.23,WNW,292,0.0,-999.0,76,-99.99,,,0.00,Acu-Link.com,2013-04-27 04:19:00,
2013-04-27 00:34:00,57.4,49.9,30.24,WNW,292,0.0,-999.0,76,-99.99,,,0.00,Acu-Link.com,2013-04-27 04:34:00,
2013-04-27 00:50:00,57.4,50.2,30.24,NNW,337,0.0,-999.0,77,-99.99,,,0.00,Acu-Link.com,2013-04-27 04:50:00,
2013-04-27 01:05:00,57.4,50.2,30.24,East,90,0.0,-999.0,77,-99.99,,,0.00,Acu-Link.com,2013-04-27 05:05:00,
2013-04-27 01:20:00,57.4,50.2,30.24,SW,225,0.0,-999.0,77,-99.99,,,0.00,Acu-Link.com,2013-04-27 05:20:00,
2013-04-27 01:36:00,57.4,50.2,30.24,West,270,0.0,-999.0,77,-99.99,,,0.00,Acu-Link.com,2013-04-27 05:36:00,
2013-04-27 01:51:00,57.2,49.7,30.23,South,180,0.0,-999.0,76,-99.99,,,0.00,Acu-Link.com,2013-04-27 05:51:00,
2013-04-27 02:06:00,57.0,50.2,30.23,NNE,22,0.0,-999.0,78,-99.99,,,0.00,Acu-Link.com,2013-04-27 06:06:00,
2013-04-27 02:21:00,57.0,50.2,30.23,SSW,202,0.0,-999.0,78,-99.99,,,0.00,Acu-Link.com,2013-04-27 06:21:00,
2013-04-27 02:36:00,57.0,50.9,30.24,West,270,0.0,-999.0,80,-99.99,,,0.00,Acu-Link.com,2013-04-27 06:36:00,
2013-04-27 02:52:00,57.0,51.2,30.25,SSW,202,0.0,-999.0,81,-99.99,,,0.00,Acu-Link.com,2013-04-27 06:52:00,
2013-04-27 03:07:00,57.0,50.2,30.26,West,270,0.0,-999.0,78,-99.99,,,0.00,Acu-Link.com,2013-04-27 07:07:00,
2013-04-27 03:22:00,57.0,50.2,30.25,SW,225,0.0,-999.0,78,-99.99,,,0.00,Acu-Link.com,2013-04-27 07:22:00,
2013-04-27 03:38:00,57.0,50.2,30.25,SSW,202,0.0,-999.0,78,-99.99,,,0.00,Acu-Link.com,2013-04-27 07:38:00,
2013-04-27 03:53:00,57.0,50.6,30.25,SSW,202,0.0,-999.0,79,-99.99,,,0.00,Acu-Link.com,2013-04-27 07:53:00,
2013-04-27 04:09:00,57.2,51.8,30.25,SW,225,0.0,-999.0,82,-99.99,,,0.00,Acu-Link.com,2013-04-27 08:09:00,
2013-04-27 04:24:00,57.2,52.1,30.25,SE,135,0.0,-999.0,83,-99.99,,,0.00,Acu-Link.com,2013-04-27 08:24:00,
2013-04-27 04:39:00,57.0,53.5,30.24,SE,135,0.0,-999.0,88,-99.99,,,0.00,Acu-Link.com,2013-04-27 08:39:00,
2013-04-27 04:54:00,56.5,53.0,30.24,ESE,112,0.0,-999.0,88,-99.99,,,0.00,Acu-Link.com,2013-04-27 08:54:00,
2013-04-27 05:09:00,55.6,51.8,30.24,South,180,0.0,-999.0,87,-99.99,,,0.00,Acu-Link.com,2013-04-27 09:09:00,
2013-04-27 05:25:00,54.9,51.4,30.23,SW,225,0.0,-999.0,88,-99.99,,,0.00,Acu-Link.com,2013-04-27 09:25:00,
2013-04-27 05:40:00,54.3,50.2,30.23,SSW,202,0.0,-999.0,86,-99.99,,,0.00,Acu-Link.com,2013-04-27 09:40:00,
2013-04-27 05:55:00,53.8,49.7,30.24,ESE,112,0.0,-999.0,86,-99.99,,,0.00,Acu-Link.com,2013-04-27 09:55:00,
2013-04-27 06:10:00,53.4,49.9,30.24,ESE,112,0.0,-999.0,88,-99.99,,,0.00,Acu-Link.com,2013-04-27 10:10:00,
2013-04-27 06:26:00,53.1,50.5,30.26,SW,225,0.0,-999.0,91,-99.99,,,0.01,Acu-Link.com,2013-04-27 10:26:00,
2013-04-27 06:41:00,52.5,51.7,30.26,SSE,157,0.0,-999.0,97,-99.99,,,0.02,Acu-Link.com,2013-04-27 10:41:00,
2013-04-27 06:56:00,52.5,52.0,30.26,SSE,157,0.0,-999.0,98,-99.99,,,0.08,Acu-Link.com,2013-04-27 10:56:00,
2013-04-27 07:11:00,52.3,51.8,30.25,South,180,0.0,-999.0,98,-99.99,,,0.08,Acu-Link.com,2013-04-27 11:11:00,
2013-04-27 07:27:00,52.3,52.0,30.25,South,180,0.0,-999.0,99,-99.99,,,0.08,Acu-Link.com,2013-04-27 11:27:00,
2013-04-27 07:42:00,52.2,51.9,30.25,SSE,157,0.0,-999.0,99,-99.99,,,0.09,Acu-Link.com,2013-04-27 11:42:00,
2013-04-27 07:57:00,52.3,52.0,30.26,NE,45,0.0,-999.0,99,-99.99,,,0.10,Acu-Link.com,2013-04-27 11:57:00,
2013-04-27 08:13:00,52.7,52.4,30.25,NNE,22,0.0,-999.0,99,-99.99,,,0.11,Acu-Link.com,2013-04-27 12:13:00,
2013-04-27 08:28:00,52.9,52.6,30.25,East,90,0.0,-999.0,99,-99.99,,,0.11,Acu-Link.com,2013-04-27 12:28:00,
2013-04-27 08:43:00,53.2,52.9,30.26,South,180,0.0,-999.0,99,-99.99,,,0.11,Acu-Link.com,2013-04-27 12:43:00,
2013-04-27 08:59:00,54.1,53.8,30.26,SSW,202,0.0,-999.0,99,-99.99,,,0.11,Acu-Link.com,2013-04-27 12:59:00,
2013-04-27 09:14:00,54.7,54.4,30.26,ESE,112,0.0,-999.0,99,-99.99,,,0.11,Acu-Link.com,2013-04-27 13:14:00,
2013-04-27 09:29:00,55.4,54.8,30.26,West,270,0.0,-999.0,98,-99.99,,,0.11,Acu-Link.com,2013-04-27 13:29:00,
2013-04-27 10:00:00,56.3,55.2,30.26,SSW,202,0.0,-999.0,96,-99.99,,,0.11,Acu-Link.com,2013-04-27 14:00:00,
2013-04-27 10:15:00,56.3,55.5,30.26,ESE,112,0.0,-999.0,97,-99.99,,,0.11,Acu-Link.com,2013-04-27 14:15:00,
2013-04-27 10:31:00,57.0,56.2,30.25,West,270,0.0,-999.0,97,-99.99,,,0.11,Acu-Link.com,2013-04-27 14:31:00,
2013-04-27 10:46:00,57.6,56.2,30.25,NW,315,1.7,-999.0,95,-99.99,,,0.11,Acu-Link.com,2013-04-27 14:46:00,
2013-04-27 11:01:00,58.3,57.2,30.26,NNE,22,0.0,-999.0,96,-99.99,,,0.11,Acu-Link.com,2013-04-27 15:01:00,
2013-04-27 11:16:00,58.8,56.8,30.27,WNW,292,0.0,-999.0,93,-99.99,,,0.12,Acu-Link.com,2013-04-27 15:16:00,
2013-04-27 11:32:00,59.0,57.6,30.26,ESE,112,0.0,-999.0,95,-99.99,,,0.12,Acu-Link.com,2013-04-27 15:32:00,
2013-04-27 11:47:00,59.0,57.9,30.26,NNE,22,0.0,-999.0,96,-99.99,,,0.12,Acu-Link.com,2013-04-27 15:47:00,
2013-04-27 12:02:00,59.4,58.0,30.26,NNE,22,0.0,-999.0,95,-99.99,,,0.12,Acu-Link.com,2013-04-27 16:02:00,
2013-04-27 12:18:00,59.2,58.1,30.26,WSW,247,0.0,-999.0,96,-99.99,,,0.12,Acu-Link.com,2013-04-27 16:18:00,
2013-04-27 12:33:00,58.8,58.2,30.25,SSW,202,0.0,-999.0,98,-99.99,,,0.12,Acu-Link.com,2013-04-27 16:33:00,
2013-04-27 12:48:00,58.1,57.3,30.25,NW,315,0.0,-999.0,97,-99.99,,,0.16,Acu-Link.com,2013-04-27 16:48:00,
2013-04-27 13:04:00,57.6,57.0,30.25,WSW,247,0.0,-999.0,98,-99.99,,,0.18,Acu-Link.com,2013-04-27 17:04:00,
2013-04-27 13:19:00,57.0,56.4,30.25,NW,315,0.0,-999.0,98,-99.99,,,0.18,Acu-Link.com,2013-04-27 17:19:00,
2013-04-27 13:34:00,57.2,56.9,30.25,NW,315,0.0,-999.0,99,-99.99,,,0.18,Acu-Link.com,2013-04-27 17:34:00,
2013-04-27 13:50:00,57.4,57.1,30.24,WNW,292,0.0,-999.0,99,-99.99,,,0.19,Acu-Link.com,2013-04-27 17:50:00,
2013-04-27 14:05:00,57.9,57.6,30.24,ENE,67,0.0,-999.0,99,-99.99,,,0.19,Acu-Link.com,2013-04-27 18:05:00,
2013-04-27 14:20:00,58.3,58.0,30.24,NW,315,1.1,-999.0,99,-99.99,,,0.19,Acu-Link.com,2013-04-27 18:20:00,
2013-04-27 14:36:00,58.1,57.5,30.24,NNW,337,0.0,-999.0,98,-99.99,,,0.19,Acu-Link.com,2013-04-27 18:36:00,
2013-04-27 14:51:00,57.7,56.9,30.24,NW,315,2.2,-999.0,97,-99.99,,,0.19,Acu-Link.com,2013-04-27 18:51:00,
2013-04-27 15:06:00,57.4,56.8,30.24,West,270,1.7,-999.0,98,-99.99,,,0.20,Acu-Link.com,2013-04-27 19:06:00,
2013-04-27 15:21:00,57.2,56.9,30.23,West,270,0.0,-999.0,99,-99.99,,,0.22,Acu-Link.com,2013-04-27 19:21:00,
2013-04-27 15:37:00,57.4,57.1,30.23,SE,135,0.0,-999.0,99,-99.99,,,0.22,Acu-Link.com,2013-04-27 19:37:00,
2013-04-27 15:52:00,57.6,57.0,30.22,West,270,0.0,-999.0,98,-99.99,,,0.22,Acu-Link.com,2013-04-27 19:52:00,
2013-04-27 16:07:00,58.1,57.3,30.21,ESE,112,0.0,-999.0,97,-99.99,,,0.22,Acu-Link.com,2013-04-27 20:07:00,
2013-04-27 16:23:00,58.5,57.9,30.20,SSE,157,0.0,-999.0,98,-99.99,,,0.22,Acu-Link.com,2013-04-27 20:23:00,
2013-04-27 16:38:00,58.8,57.9,30.20,ESE,112,0.0,-999.0,97,-99.99,,,0.22,Acu-Link.com,2013-04-27 20:38:00,
2013-04-27 16:54:00,58.6,57.5,30.22,NNW,337,0.0,-999.0,96,-99.99,,,0.22,Acu-Link.com,2013-04-27 20:54:00,
2013-04-27 17:09:00,58.8,57.9,30.21,East,90,0.0,-999.0,97,-99.99,,,0.22,Acu-Link.com,2013-04-27 21:09:00,
2013-04-27 17:24:00,58.8,58.2,30.21,NW,315,0.0,-999.0,98,-99.99,,,0.22,Acu-Link.com,2013-04-27 21:24:00,
2013-04-27 17:40:00,58.8,57.9,30.20,SSE,157,0.0,-999.0,97,-99.99,,,0.22,Acu-Link.com,2013-04-27 21:40:00,
2013-04-27 17:55:00,58.6,58.0,30.20,South,180,0.0,-999.0,98,-99.99,,,0.22,Acu-Link.com,2013-04-27 21:55:00,
2013-04-27 18:10:00,58.5,57.9,30.19,SSE,157,0.0,-999.0,98,-99.99,,,0.22,Acu-Link.com,2013-04-27 22:10:00,
2013-04-27 18:26:00,58.5,57.7,30.19,NE,45,1.7,-999.0,97,-99.99,,,0.22,Acu-Link.com,2013-04-27 22:26:00,
2013-04-27 18:41:00,58.5,57.7,30.19,WSW,247,0.0,-999.0,97,-99.99,,,0.22,Acu-Link.com,2013-04-27 22:41:00,
2013-04-27 18:56:00,58.1,57.3,30.18,ESE,112,0.0,-999.0,97,-99.99,,,0.22,Acu-Link.com,2013-04-27 22:56:00,
2013-04-27 19:11:00,58.1,57.5,30.18,East,90,0.0,-999.0,98,-99.99,,,0.22,Acu-Link.com,2013-04-27 23:11:00,
2013-04-27 19:27:00,57.9,57.3,30.18,West,270,0.0,-999.0,98,-99.99,,,0.22,Acu-Link.com,2013-04-27 23:27:00,
2013-04-27 19:42:00,57.6,57.3,30.17,SW,225,0.0,-999.0,99,-99.99,,,0.22,Acu-Link.com,2013-04-27 23:42:00,
2013-04-27 19:58:00,57.2,56.9,30.17,SSE,157,0.0,-999.0,99,-99.99,,,0.22,Acu-Link.com,2013-04-27 23:58:00,
2013-04-27 20:13:00,57.0,56.7,30.17,SE,135,0.0,-999.0,99,-99.99,,,0.22,Acu-Link.com,2013-04-28 00:13:00,
2013-04-27 20:28:00,56.7,56.4,30.16,ESE,112,0.0,-999.0,99,-99.99,,,0.22,Acu-Link.com,2013-04-28 00:28:00,
2013-04-27 20:44:00,56.5,56.2,30.15,SSW,202,0.0,-999.0,99,-99.99,,,0.22,Acu-Link.com,2013-04-28 00:44:00,
2013-04-27 20:59:00,56.1,55.8,30.16,East,90,0.0,-999.0,99,-99.99,,,0.22,Acu-Link.com,2013-04-28 00:59:00,
2013-04-27 21:14:00,55.9,55.6,30.16,NW,315,0.0,-999.0,99,-99.99,,,0.22,Acu-Link.com,2013-04-28 01:14:00,
2013-04-27 21:30:00,55.8,55.5,30.16,ENE,67,0.0,-999.0,99,-99.99,,,0.22,Acu-Link.com,2013-04-28 01:30:00,
2013-04-27 21:45:00,55.6,55.3,30.16,ESE,112,0.0,-999.0,99,-99.99,,,0.22,Acu-Link.com,2013-04-28 01:45:00,
2013-04-27 22:00:00,55.4,55.1,30.15,West,270,0.0,-999.0,99,-99.99,,,0.22,Acu-Link.com,2013-04-28 02:00:00,
2013-04-27 22:16:00,55.2,54.9,30.15,WNW,292,0.0,-999.0,99,-99.99,,,0.22,Acu-Link.com,2013-04-28 02:16:00,
2013-04-27 22:31:00,55.0,54.7,30.14,WNW,292,0.0,-999.0,99,-99.99,,,0.22,Acu-Link.com,2013-04-28 02:31:00,
2013-04-27 22:46:00,54.9,54.6,30.16,West,270,0.0,-999.0,99,-99.99,,,0.22,Acu-Link.com,2013-04-28 02:46:00,
2013-04-27 23:01:00,54.9,54.6,30.14,NE,45,0.0,-999.0,99,-99.99,,,0.23,Acu-Link.com,2013-04-28 03:01:00,
2013-04-27 23:16:00,54.7,54.4,30.14,West,270,0.0,-999.0,99,-99.99,,,0.23,Acu-Link.com,2013-04-28 03:16:00,
2013-04-27 23:32:00,54.7,54.4,30.15,WNW,292,0.0,-999.0,99,-99.99,,,0.23,Acu-Link.com,2013-04-28 03:32:00,
2013-04-27 23:47:00,54.7,54.4,30.15,WNW,292,0.0,-999.0,99,-99.99,,,0.23,Acu-Link.com,2013-04-28 03:47:00,